Regional Weather Roundup
Issued by NWS

Home | Current Version | Previous Version | Graphics & Text | Print | Product List | Glossary On
Versions: 1 2 3 4 5 6 7 8 9 10 11 12 13 14 15 16 17 18 19 20 21 22 23 24 25 26 27 28 29 30 31 32 33 34 35 36 37 38 39 40 41 42 43 44 45 46 47 48 49 50
000
ASUS43 KBIS 171920
RWRND

NORTH DAKOTA REGIONAL WEATHER ROUNDUP
NATIONAL WEATHER SERVICE BISMARCK ND
200 PM CDT WED SEP 17 2014

NOTE: "FAIR" INDICATES FEW OR NO CLOUDS BELOW 12,000 FEET WITH NO
SIGNIFICANT WEATHER AND/OR OBSTRUCTIONS TO VISIBILITY.


NDZ001>003-009>011-017-172000-
NORTHWEST NORTH DAKOTA

CITY           SKY/WX    TMP DP  RH WIND       PRES   REMARKS
WILLISTON      MOSUNNY   76  42  29 SE8       29.94F
MINOT          SUNNY     68  47  46 E9        29.99S
MINOT AFB      SUNNY     66  49  53 E10       29.99S
$$

NDZ018>021-031>035-040>046-172000-
SOUTHWEST NORTH DAKOTA

CITY           SKY/WX    TMP DP  RH WIND       PRES   REMARKS
BISMARCK       MOSUNNY   73  50  44 VRB5      29.97F
DICKINSON      CLOUDY    68  46  45 E13       29.96F
GARRISON         N/A     73  44  35 E7        29.98S
HETTINGER ARPT PTSUNNY   71  49  45 E7        29.98S
$$

NDZ004>008-012>016-024-026-027-054-172000-
NORTHEAST NORTH DAKOTA

CITY           SKY/WX    TMP DP  RH WIND       PRES   REMARKS
GRAND FORKS    MOSUNNY   64  51  62 NE12      30.01R
GRND FRKS AFB  PTSUNNY   61  52  72 N13       30.03S
DEVILS LAKE    SUNNY     61  45  55 NE10G16   30.02S
$$

NDZ022-023-025-028>030-036>039-047>053-172000-
SOUTHEAST NORTH DAKOTA

CITY           SKY/WX    TMP DP  RH WIND       PRES   REMARKS
FARGO          SUNNY     72  49  44 N8        29.96S
JAMESTOWN      SUNNY     72  47  40 E3        29.97S
$$




USA.gov is the U.S. government's official web portal to all federal, state and local government web resources and services.